Wind_Speed
42 41 44 47 37 35 36 39 43 39 39 44 46 42 42 33 31 34 34 34 32 28 23 19 17 18 17 16 18 21 23 26 28 26 26 30 23 31 28 37 35 33 31
37 45 45 43 44 41 36 36 40 41 42 38 39 45 40 38 33 33 34 31 31 31 26 22 20 19 18 18 20 21 24 26 28 30 29 31 27 22 30 39 39 34 33
35 36 43 39 36 47 44 41 37 39 44 41 38 41 45 43 37 34 32 28 30 31 28 25 22 20 19 18 20 24 26 27 27 31 28 30 29 21 27 37 42 37 37
27 26 30 43 43 40 50 49 46 39 35 41 43 41 45 44 41 34 24 22 26 31 29 27 23 22 22 21 21 25 28 28 30 30 31 30 28 30 25 37 39 40 40
24 28 27 30 36 31 42 45 50 49 44 39 33 38 40 41 37 34 28 26 27 29 31 27 23 24 23 22 23 25 27 29 30 31 33 32 27 29 27 39 48 45 40
31 30 30 23 27 29 30 38 41 42 45 43 35 36 37 43 36 34 32 25 28 31 31 27 24 25 26 21 24 25 25 28 30 32 33 33 33 31 35 37 45 38 36
29 35 38 26 23 24 26 31 35 37 40 42 30 32 38 38 33 30 32 26 28 31 30 25 25 26 27 20 24 25 26 27 30 30 32 35 34 31 31 47 41 38 32
38 34 35 27 25 24 24 26 28 27 32 33 33 30 34 35 35 34 34 27 27 30 29 28 25 26 26 20 24 24 25 27 29 29 30 35 35 33 38 32 41 41 34
12 21 37 28 36 33 25 23 28 31 34 34 33 35 34 35 36 35 33 29 30 29 30 27 24 25 23 19 24 25 26 29 30 33 33 39 35 36 34 28 41 37 31
14 9 16 27 29 27 25 22 22 29 28 32 34 35 37 35 35 34 33 32 31 29 30 24 25 23 21 18 22 26 29 32 35 37 36 35 37 38 38 37 29 33 35
18 10 9 13 16 16 19 20 20 23 28 30 30 37 39 34 35 31 29 29 29 30 28 24 24 20 19 17 23 27 26 27 30 33 32 40 36 40 36 38 34 33 39
16 12 11 11 12 14 15 20 19 21 25 26 27 26 36 38 34 31 25 26 29 30 25 24 22 19 16 19 23 25 21 24 27 28 33 34 33 40 43 40 37 40 41
15 13 12 11 10 12 14 19 22 21 19 23 24 23 33 42 38 36 25 26 27 29 26 24 21 18 16 19 21 19 20 21 20 25 21 24 35 32 38 38 40 47 41
11 10 9 10 10 9 13 16 19 22 24 21 19 18 17 25 21 22 24 26 26 26 26 23 20 18 16 19 18 14 17 20 19 18 25 23 26 32 37 34 46 44 41
9 9 9 10 8 7 5 11 17 20 21 20 14 16 13 13 18 20 24 25 23 24 24 22 18 18 17 18 16 14 17 15 16 15 12 20 20 31 31 27 47 50 41
9 9 11 13 9 7 7 6 8 12 11 13 18 21 19 21 23 22 22 26 22 22 21 17 17 18 18 18 17 13 12 12 14 12 7 11 11 11 34 42 41 40 39
9 10 11 14 10 4 6 8 9 11 15 15 24 17 23 29 30 30 26 27 23 21 20 19 17 19 20 19 18 15 13 15 13 17 13 14 16 22 21 28 35 34 31
10 12 14 16 16 7 1 7 13 12 19 23 16 35 34 33 20 25 27 26 27 26 23 20 23 23 21 20 19 19 18 17 18 18 23 17 19 23 21 27 30 29 32
10 13 16 18 18 16 10 5 7 13 18 18 21 20 28 36 35 17 21 23 24 27 29 31 26 26 26 23 21 22 22 21 21 23 19 24 25 26 25 29 28 28 32
13 14 16 17 16 16 18 16 9 6 15 14 11 19 25 22 14 21 20 22 25 31 39 37 39 26 29 28 24 26 24 25 26 26 28 29 31 31 30 31 28 30 27
10 13 14 12 14 15 15 13 14 11 10 6 1 10 14 19 25 21 28 30 27 28 29 34 31 30 32 33 26 25 26 28 26 27 28 31 32 33 31 33 38 37 35
10 10 11 11 12 14 14 13 11 15 15 15 13 11 9 5 1 3 12 16 18 25 27 26 25 28 28 30 30 31 29 30 33 32 34 36 38 39 41 43 42 43 41
8 9 9 11 12 13 13 11 13 16 16 14 13 12 13 10 10 9 8 6 3 2 5 8 7 8 11 13 18 25 24 26 30 29 23 22 21 21 21 22 23 22 20
8 8 9 9 10 11 12 11 12 12 13 13 12 11 11 11 10 11 10 10 8 7 7 6 5 5 3 3 3 3 3 4 8 11 12 14 14 14 16 16 16 13 12
6 7 7 7 8 9 10 9 9 9 9 9 10 10 10 10 10 8 7 6 6 6 5 4 4 3 2 2 3 4 6 8 10 12 13 14 16 16 16 17 18 19 21
5 5 5 6 7 8 8 8 8 7 7 7 6 5 4 5 5 6 6 6 5 6 6 7 8 8 8 8 9 10 11 12 12 13 14 15 16 17 17 19 20 21 22
Wind_Direction
269 265 267 268 256 254 258 251 242 234 239 245 241 243 244 232 232 232 233 242 249 255 261 266 280 291 281 270 263 256 250 250 243 247 250 246 250 269 268 223 220 221 232
280 262 261 259 258 248 249 246 242 236 237 243 244 242 244 241 234 234 233 240 247 250 256 263 275 285 283 271 267 264 256 251 245 240 243 238 250 262 239 219 222 220 231
291 275 251 254 262 245 243 242 237 242 242 240 242 239 236 240 234 229 229 233 243 244 251 257 268 279 284 274 266 263 258 251 246 244 236 247 254 279 237 223 223 223 223
287 285 273 261 268 257 242 242 241 238 239 242 239 242 239 236 232 234 225 241 257 246 246 254 265 275 284 277 269 263 259 247 245 244 240 251 253 255 254 215 216 212 223
289 281 275 263 260 257 240 240 249 244 238 237 246 243 236 233 240 230 231 244 259 239 241 252 261 273 280 279 272 262 253 244 243 243 244 246 257 249 261 226 217 224 223
282 277 277 252 264 255 241 244 243 235 234 239 245 235 233 231 234 232 235 249 247 232 240 250 262 273 277 276 270 257 240 240 242 243 243 244 253 257 255 232 224 222 222
287 286 276 251 270 264 250 242 235 232 229 231 230 230 226 231 228 235 235 244 242 236 243 250 257 273 276 266 262 251 237 242 243 246 248 250 250 245 246 234 237 224 233
285 279 266 251 247 266 262 248 240 241 229 239 229 223 222 229 226 228 239 242 243 240 242 246 257 270 271 260 259 254 242 243 246 244 250 245 246 250 246 253 230 223 234
288 251 249 249 266 271 265 256 242 237 236 228 230 229 224 223 224 228 237 238 238 236 241 245 259 268 264 254 261 260 258 252 252 252 255 254 242 238 234 241 225 232 244
329 318 254 255 265 273 258 241 231 229 230 230 229 222 218 219 223 234 235 234 232 235 235 244 260 264 261 250 264 267 262 259 257 259 256 239 248 235 234 241 239 235 233
323 327 315 274 261 263 230 225 228 223 229 228 223 228 215 222 231 233 235 226 226 229 229 245 255 259 258 260 271 270 265 258 253 254 244 255 243 228 234 232 234 229 225
317 324 324 311 271 254 225 219 226 232 228 235 236 230 226 223 225 220 230 215 225 222 230 245 251 255 256 262 274 270 255 265 254 259 252 248 237 229 230 236 231 232 230
311 318 313 315 308 262 230 212 221 229 230 237 241 248 253 256 210 203 224 213 216 224 235 246 247 249 253 267 275 267 257 270 271 270 236 251 238 230 223 228 232 232 230
325 316 310 318 314 285 243 220 220 227 232 229 231 238 260 205 188 216 211 212 220 230 241 246 244 244 250 263 272 265 257 263 272 269 242 237 234 227 229 237 235 223 230
329 320 325 321 299 290 265 246 235 231 236 234 231 224 212 192 187 215 219 221 227 235 246 248 244 240 249 258 268 256 254 264 259 281 271 231 242 233 228 249 232 229 230
351 346 343 339 319 257 254 238 242 247 218 210 239 220 218 234 231 231 216 229 233 237 237 241 252 251 244 251 258 259 257 249 242 268 248 254 225 229 218 209 217 233 229
13 10 6 5 353 241 219 221 214 237 209 238 201 209 215 210 217 223 224 237 238 223 238 244 254 261 252 246 249 246 238 235 240 251 249 250 233 235 235 241 244 231 247
28 30 35 29 28 27 268 216 215 247 217 197 207 196 199 208 213 213 226 238 240 239 238 247 248 255 260 251 248 248 245 232 230 237 243 240 247 237 239 240 236 243 241
52 47 43 42 36 38 46 41 239 250 246 216 208 213 212 201 191 231 234 232 238 251 253 247 251 260 255 260 262 255 254 245 237 237 234 236 241 244 245 248 242 248 247
54 50 48 42 36 39 46 40 35 314 252 261 243 220 216 215 200 215 235 246 256 270 261 246 241 256 247 249 259 261 260 254 250 245 241 242 242 243 245 244 242 238 244
51 48 46 45 43 42 41 36 43 34 53 51 64 226 228 236 233 228 225 219 242 250 239 229 230 244 248 246 251 242 245 263 257 256 256 252 247 251 245 246 244 242 248
53 47 47 45 50 50 50 48 58 65 62 60 61 67 62 70 173 228 248 241 229 228 233 234 232 236 242 245 240 242 240 242 240 253 245 247 251 250 246 237 242 243 244
66 63 58 55 54 59 55 52 57 68 68 61 59 63 66 68 68 65 79 89 131 128 237 246 251 236 234 234 231 236 236 241 245 245 237 234 235 236 237 235 228 226 232
65 56 53 55 61 66 66 59 53 55 59 59 59 60 59 64 62 59 59 64 68 70 74 82 89 95 130 207 239 254 249 226 221 227 235 239 242 247 248 245 251 260 269
74 66 57 47 48 52 48 47 44 43 45 49 53 48 41 38 36 39 43 47 43 41 35 31 22 15 355 315 278 263 256 257 259 257 253 254 256 259 263 261 262 263 267
78 63 50 35 21 29 32 31 29 22 14 13 15 11 352 336 326 317 310 312 312 308 305 299 294 293 291 287 283 284 284 279 276 276 273 273 273 275 276 278 280 280 280
Height
3031 3032 3033 3033 3035 3037 3037 3039 3040 3044 3050 3052 3056 3060 3063 3068 3070 3072 3076 3080 3082 3084 3085 3086 3086 3086 3085 3084 3084 3085 3087 3088 3090 3091 3092 3095 3096 3098 3098 3101 3107 3112 3116
3017 3019 3020 3021 3023 3027 3030 3030 3032 3036 3040 3044 3049 3053 3058 3061 3064 3066 3069 3073 3077 3078 3079 3080 3081 3081 3081 3079 3080 3080 3081 3083 3085 3086 3090 3089 3093 3092 3090 3095 3101 3106 3111
3006 3007 3009 3011 3012 3014 3018 3021 3024 3027 3032 3037 3041 3043 3048 3052 3056 3058 3061 3066 3070 3071 3074 3075 3075 3075 3075 3075 3075 3076 3077 3078 3080 3082 3085 3085 3085 3087 3086 3090 3095 3100 3105
3000 2998 3000 3001 3002 3004 3007 3011 3015 3019 3024 3028 3030 3034 3040 3044 3049 3054 3057 3060 3063 3065 3068 3070 3070 3069 3069 3069 3069 3070 3071 3073 3074 3077 3078 3080 3082 3082 3083 3084 3090 3093 3099
2995 2994 2991 2991 2992 2993 2996 3001 3005 3011 3017 3020 3023 3027 3032 3039 3043 3047 3049 3053 3056 3058 3062 3064 3064 3064 3063 3062 3063 3064 3065 3067 3069 3071 3073 3075 3076 3077 3079 3078 3083 3087 3093
2991 2989 2988 2983 2986 2987 2988 2991 2995 3000 3007 3013 3015 3018 3024 3031 3036 3040 3043 3046 3049 3053 3056 3057 3057 3057 3057 3055 3057 3058 3059 3061 3063 3065 3066 3068 3070 3073 3073 3076 3079 3083 3088
2984 2981 2980 2979 2981 2981 2982 2985 2990 2993 3000 3004 3006 3011 3016 3024 3030 3033 3037 3040 3043 3046 3049 3051 3051 3051 3051 3048 3051 3052 3053 3055 3056 3058 3060 3061 3063 3067 3070 3070 3073 3078 3082
2974 2973 2974 2973 2975 2977 2977 2979 2982 2987 2993 2998 3001 3004 3010 3017 3022 3026 3030 3033 3036 3040 3043 3044 3045 3045 3044 3041 3045 3046 3047 3048 3050 3051 3052 3053 3055 3058 3061 3065 3067 3071 3076
2969 2965 2967 2968 2969 2970 2972 2974 2977 2982 2986 2989 2993 2999 3003 3008 3013 3018 3022 3025 3028 3032 3036 3038 3038 3038 3037 3035 3039 3039 3040 3042 3043 3044 3045 3044 3049 3052 3055 3058 3062 3066 3069
2966 2962 2962 2964 2965 2964 2966 2969 2971 2974 2978 2982 2986 2991 2995 3001 3006 3011 3014 3018 3022 3026 3030 3031 3032 3031 3031 3030 3033 3034 3035 3034 3035 3035 3036 3036 3040 3045 3049 3053 3057 3060 3066
2965 2962 2960 2960 2961 2961 2962 2964 2967 2970 2974 2975 2980 2984 2987 2992 2998 3002 3006 3011 3015 3020 3023 3025 3026 3025 3025 3024 3027 3027 3027 3026 3027 3026 3022 3028 3032 3037 3041 3047 3050 3055 3058
2966 2961 2959 2957 2956 2957 2959 2960 2963 2966 2970 2972 2975 2976 2980 2983 2989 2995 3001 3004 3010 3014 3017 3019 3019 3019 3019 3020 3021 3021 3021 3019 3018 3018 3017 3019 3022 3028 3033 3038 3043 3048 3052
2964 2959 2957 2956 2954 2954 2955 2957 2960 2963 2966 2969 2971 2973 2975 2964 2978 2987 2994 3000 3005 3009 3011 3012 3013 3014 3013 3015 3016 3015 3016 3015 3014 3011 3010 3013 3016 3020 3025 3031 3037 3040 3045
2963 2959 2957 2954 2953 2952 2952 2954 2956 2959 2962 2965 2967 2968 2966 2968 2972 2982 2989 2995 2999 3003 3005 3007 3007 3009 3008 3010 3010 3010 3010 3009 3009 3007 3006 3008 3011 3015 3020 3024 3028 3033 3039
2962 2958 2955 2953 2952 2950 2949 2950 2953 2955 2958 2962 2963 2965 2966 2968 2972 2978 2985 2990 2994 2997 3000 3002 3003 3004 3004 3006 3005 3005 3006 3006 3007 3006 3005 3003 3006 3011 3015 3018 3021 3027 3033
2962 2958 2955 2952 2949 2948 2949 2950 2951 2953 2955 2957 2959 2962 2965 2969 2973 2975 2981 2985 2990 2992 2994 2996 2998 3000 3001 3003 3003 3001 3002 3004 3005 3005 3005 3005 3006 3008 3012 3016 3020 3024 3027
2961 2958 2955 2951 2948 2947 2948 2948 2950 2952 2952 2953 2954 2957 2959 2964 2968 2972 2977 2981 2984 2985 2988 2990 2992 2996 2998 2998 2999 2999 2999 3001 3002 3002 3004 3006 3007 3008 3010 3013 3016 3019 3023
2962 2960 2956 2953 2950 2948 2946 2946 2948 2949 2950 2949 2950 2950 2956 2957 2964 2969 2973 2976 2979 2980 2983 2985 2987 2991 2992 2994 2994 2995 2996 2997 2999 3000 3002 3003 3005 3007 3009 3011 3013 3016 3018
2963 2961 2958 2955 2953 2950 2947 2945 2947 2947 2948 2948 2950 2948 2950 2949 2952 2962 2967 2971 2972 2975 2978 2980 2983 2985 2987 2988 2989 2990 2991 2993 2994 2996 2998 3000 3002 3003 3005 3007 3008 3009 3011
2964 2963 2960 2957 2956 2953 2951 2949 2948 2948 2947 2948 2949 2950 2951 2953 2949 2956 2963 2966 2967 2969 2970 2967 2973 2977 2980 2982 2984 2985 2986 2987 2990 2991 2993 2995 2997 2998 3000 3001 3002 3004 3005
2966 2964 2963 2961 2958 2956 2955 2953 2951 2950 2948 2949 2950 2951 2951 2953 2953 2954 2957 2958 2960 2962 2961 2963 2965 2969 2972 2975 2978 2979 2981 2982 2983 2985 2987 2989 2990 2992 2993 2995 2995 2997 2997
2970 2968 2967 2965 2962 2960 2960 2959 2957 2954 2954 2954 2953 2953 2953 2951 2954 2956 2955 2954 2954 2957 2959 2959 2960 2962 2964 2966 2968 2970 2973 2974 2975 2977 2979 2980 2981 2982 2982 2982 2984 2985 2986
2972 2971 2970 2968 2966 2965 2964 2964 2962 2960 2960 2960 2959 2958 2957 2957 2957 2958 2956 2956 2954 2957 2957 2957 2959 2958 2959 2960 2960 2962 2964 2965 2967 2969 2969 2970 2971 2971 2973 2974 2974 2975 2976
2973 2973 2972 2972 2970 2968 2967 2967 2966 2965 2964 2964 2963 2962 2962 2962 2962 2961 2959 2958 2958 2959 2959 2959 2959 2959 2958 2960 2961 2962 2963 2962 2963 2963 2965 2966 2966 2967 2967 2967 2968 2969 2970
2975 2974 2974 2974 2972 2970 2969 2969 2969 2968 2967 2966 2965 2964 2965 2964 2964 2963 2963 2962 2961 2961 2961 2960 2960 2960 2959 2960 2960 2961 2961 2961 2962 2962 2962 2962 2963 2963 2964 2965 2965 2965 2966
2975 2975 2975 2975 2974 2972 2971 2970 2969 2969 2968 2968 2966 2965 2965 2965 2965 2964 2964 2963 2962 2962 2960 2960 2960 2960 2959 2959 2959 2959 2959 2959 2959 2959 2959 2959 2959 2959 2959 2959 2960 2960 2960